Weather History for KCMH - February, 2013

Change the Weather History Date:

Saturday, February 9, 2013

  Actual Average Record
Temperature  
Mean Temperature 29 °F 31 °F  
Max Temperature 37 °F 39 °F 66 °F (2001)
Min Temperature 20 °F 24 °F -17 °F (1899)
Degree Days  
Heating Degree Days 36 34  
Month to date heating degree days 341 309  
Since 1 July heating degree days 3257 3401  
Cooling Degree Days 0 0  
Month to date cooling degree days 0 0  
Year to date cooling degree days 0 0  
Moisture  
Dew Point 17 °F    
Average Humidity 64    
Maximum Humidity 84    
Minimum Humidity 44    
Precipitation  
Precipitation 0.00 in 0.08 in 1.62 in (1893)
Month to date precipitation 0.45 0.75  
Year to date precipitation 2.70 3.48  
Snow  
Snow 0.00 in 0.20 in 4.40 in (2010)
Month to date snowfall 4.0 2.1  
Since 1 July snowfall 26.2 17.4  
Snow Depth 0.00 in    
Sea Level Pressure  
Sea Level Pressure 30.38 in    
Wind  
Wind Speed 5 mph (NNE)    
Max Wind Speed 15 mph    
Max Gust Speed 18 mph    
Visibility 10 miles    
Events      
T = Trace of Precipitation, MM = Missing Value Source: NWS Daily Summary

Daily Weather History Graph

Daily Weather History Graph

Search for Another Location

Airport or City:

Trip Planner

Search our weather history database for the weather conditions in past years. The results will help you decide how hot, cold, wet, or windy it might be!

Date:

Astronomy

Feb. 09, 2013 Rise Set
Actual Time 7:31 AM EST 6:00 PM EST
Civil Twilight 7:03 AM EST 6:28 PM EST
Nautical Twilight 6:31 AM EST 7:00 PM EST
Astronomical Twilight 5:59 AM EST 7:32 PM EST
Moon 6:42 AM EST (2/9) 5:42 PM EST (2/9)
Length of Visible Light 11h 25m
Length of Day
10h 29m
Waning Crescent, 0% of the Moon is Illuminated
Feb 9
Waning Crescent
Feb 10
New
Feb 17
First Quarter
Feb 25
Full
Mar 4
Last Quarter

Hourly Weather History & Observations

Time (EST) Temp. Windchill Dew Point Humidity Pressure Visibility Wind Dir Wind Speed Gust Speed Precip Events Conditions
12:51 AM 27.0 °F 17.3 °F 17.1 °F 66% 30.34 in 10.0 mi North 10.4 mph - N/A   Overcast
1:51 AM 27.0 °F 19.5 °F 17.1 °F 66% 30.35 in 10.0 mi North 6.9 mph - N/A   Overcast
2:51 AM 26.1 °F 17.6 °F 16.0 °F 66% 30.36 in 10.0 mi North 8.1 mph - N/A   Mostly Cloudy
3:11 AM 24.8 °F 16.9 °F 15.8 °F 69% 30.34 in 10.0 mi North 6.9 mph - N/A   Scattered Clouds
3:51 AM 25.0 °F 16.3 °F 16.0 °F 69% 30.38 in 10.0 mi NW 8.1 mph - N/A   Mostly Cloudy
4:51 AM 24.1 °F 18.2 °F 18.0 °F 77% 30.39 in 10.0 mi NW 4.6 mph - N/A   Mostly Cloudy
4:58 AM 24.8 °F 19.1 °F 17.6 °F 74% 30.36 in 10.0 mi NW 4.6 mph - N/A   Scattered Clouds
5:51 AM 23.0 °F 18.4 °F 17.1 °F 78% 30.40 in 10.0 mi NNW 3.5 mph - N/A   Clear
6:51 AM 21.9 °F 17.2 °F 17.1 °F 82% 30.42 in 10.0 mi NNW 3.5 mph - N/A   Clear
7:51 AM 21.9 °F 17.2 °F 18.0 °F 85% 30.44 in 9.0 mi NNW 3.5 mph - N/A   Partly Cloudy
8:51 AM 24.1 °F 19.7 °F 18.0 °F 77% 30.45 in 9.0 mi North 3.5 mph - N/A   Scattered Clouds
9:51 AM 28.0 °F - 17.1 °F 63% 30.45 in 10.0 mi Calm Calm - N/A   Mostly Cloudy
10:51 AM 30.0 °F 24.1 °F 18.0 °F 61% 30.44 in 10.0 mi East 5.8 mph - N/A   Scattered Clouds
11:51 AM 30.0 °F - 18.0 °F 61% 30.43 in 10.0 mi Calm Calm - N/A   Partly Cloudy
12:51 PM 32.0 °F 28.7 °F 18.0 °F 56% 30.41 in 10.0 mi SSW 3.5 mph - N/A   Scattered Clouds
1:51 PM 33.1 °F 30.0 °F 17.1 °F 52% 30.40 in 10.0 mi WNW 3.5 mph - N/A   Scattered Clouds
2:51 PM 35.1 °F 32.2 °F 18.0 °F 50% 30.38 in 10.0 mi Variable 3.5 mph - N/A   Mostly Cloudy
3:51 PM 37.0 °F - 18.0 °F 46% 30.38 in 10.0 mi Calm Calm - N/A   Scattered Clouds
4:51 PM 36.0 °F 31.1 °F 18.0 °F 48% 30.36 in 10.0 mi ESE 5.8 mph - N/A   Scattered Clouds
5:51 PM 32.0 °F 26.4 °F 17.1 °F 54% 30.36 in 10.0 mi ESE 5.8 mph - N/A   Scattered Clouds
6:51 PM 30.9 °F 27.5 °F 18.0 °F 59% 30.36 in 10.0 mi East 3.5 mph - N/A   Scattered Clouds
7:51 PM 30.9 °F 27.5 °F 18.0 °F 59% 30.36 in 10.0 mi NE 3.5 mph - N/A   Partly Cloudy
8:51 PM 28.9 °F 25.2 °F 18.0 °F 64% 30.36 in 10.0 mi East 3.5 mph - N/A   Clear
9:51 PM 28.9 °F 21.1 °F 18.0 °F 64% 30.34 in 10.0 mi ESE 8.1 mph - N/A   Clear
10:51 PM 28.9 °F 21.1 °F 18.0 °F 64% 30.31 in 10.0 mi ESE 8.1 mph - N/A   Partly Cloudy
11:51 PM 28.9 °F 21.9 °F 17.1 °F 61% 30.30 in 10.0 mi ESE 6.9 mph - N/A   Mostly Cloudy